[[{"header":{"parameterUnit":"m.s-1","parameterCategory":1,"la1":30.2991,"la2":30.254,"lo1":-89.0895,"lo2":-89.0444,"dy":0.0017,"dx":0.0017,"nx":28,"ny":28,"refTime":"2024-12-13T03:00:00:Z","depth":0,"parameterNumber":2,"parameterNumberName":"U-component_of_WINDS"},"data":[0,0,0,0,0,0,0,0,0,0,0,0,0,0,0,0,0,0,0,0,0,0,0,0,0,0,0,0,0,0,0,0,0,0,0,0,0,0,0,0,0,0,0,0,0,0,0,0,0,0,0,0,0,0,0,0,0,0,-6.678,-6.678,0,-6.6751,-6.6751,-6.675,-6.6622,-6.6619,-6.6616,-6.6613,-6.6583,-6.6585,-6.6587,0,0,0,0,0,0,0,0,0,0,0,0,0,-6.6727,-6.6729,-6.678,-6.678,-6.678,-6.6751,-6.6751,-6.675,-6.6622,-6.6618,-6.6615,-6.6611,-6.6582,-6.6585,-6.6587,0,0,0,0,0,0,0,0,0,0,0,0,0,-6.673,-6.673,-6.678,-6.6712,-6.6706,-6.6751,-6.6751,-6.675,-6.6623,-6.6618,-6.6614,-6.661,-6.6582,-6.6584,-6.6587,-6.6696,0,0,-6.6597,-6.6598,0,0,0,0,0,0,0,0,-6.673,-6.6732,-6.6723,-6.6717,-6.671,-6.6685,-6.6721,-6.6732,-6.6624,-6.6654,-6.6613,-6.6607,-6.6621,-6.662,-6.6625,-6.6695,-6.6693,-6.6597,-6.6599,-6.66,-6.6601,0,0,0,0,0,0,0,-6.673,-6.6732,-6.6769,-6.6723,-6.6715,-6.6684,-6.6679,-6.6723,-6.6663,-6.6651,-6.6642,-6.664,-6.6616,-6.6622,-6.6623,-6.6693,-6.6597,-6.6599,-6.6601,-6.6602,-6.6853,-6.6858,0,0,0,0,0,0,-6.6739,-6.6733,-6.677,-6.6768,-6.6709,-6.6689,-6.6683,-6.6698,-6.6662,-6.6653,-6.6644,-6.6634,-6.6619,-6.662,-6.6621,-6.6746,-6.66,-6.6603,-6.6605,-6.6848,-6.6854,-6.6859,0,0,0,0,0,0,-6.6738,-6.6743,-6.6771,-6.6748,-6.6749,-6.6694,-6.6712,-6.67,-6.6705,-6.6657,-6.6646,-6.6661,-6.6616,-6.6617,-6.6679,-6.6744,-6.6604,-6.6607,-6.6843,-6.685,-6.6857,-6.6998,0,0,0,0,0,0,-6.6737,-6.6744,-6.6784,-6.675,-6.6751,-6.6828,-6.6716,-6.6702,-6.671,-6.6697,-6.6669,-6.666,-6.6612,-6.6675,-6.6682,-6.6745,-6.6609,-6.6836,-6.6846,-6.6855,-6.6987,-6.7009,-6.7028,0,0,0,0,0,-6.6736,-6.6824,-6.6786,-6.6792,-6.6799,-6.6832,-6.6833,-6.6775,-6.6716,-6.6756,-6.6726,-6.6661,-6.6737,-6.6683,-6.6689,-6.6754,-6.6832,-6.6843,-6.6854,-6.6978,-6.7005,-6.7028,0,0,0,0,0,0,-6.6866,-6.6818,-6.6776,-6.6856,-6.685,-6.681,-6.6859,-6.6805,-6.6815,-6.6802,-6.6731,-6.6726,-6.6799,-6.6783,-6.6724,-6.6859,-6.6773,-6.6786,-6.6866,-6.6891,-6.6911,-6.6912,-6.6612,0,0,0,0,0,-6.6905,-6.6935,-6.6892,-6.6967,-6.6966,-6.6914,-6.6926,-6.6883,-6.6873,-6.6869,-6.6843,-6.6836,-6.6858,-6.6874,-6.6892,-6.6986,-6.6978,-6.7034,-6.7055,-6.7072,-6.7083,-6.7132,-6.7157,-6.6895,-6.6895,-6.6895,0,0,-6.6983,-6.6961,-6.6984,-6.6992,-6.6982,-6.7016,-6.6912,-6.6951,-6.6976,-6.6875,-6.6931,-6.6913,-6.6901,-6.698,-6.7013,-6.6969,-6.7154,-6.7086,-6.71,-6.7101,-6.7146,-6.7171,-6.7193,-6.6903,-6.6901,-6.69,0,0,-6.7143,-6.713,-6.7191,-6.7184,-6.7171,-6.7136,-6.7152,-6.7122,-6.7106,-6.7162,-6.7087,-6.7117,-6.7156,-6.715,-6.7153,-6.7317,-6.7258,-6.7325,-6.743,-6.748,-6.75,-6.7518,-6.7576,-6.7598,-6.7337,-6.7337,-6.7338,0,-6.7242,-6.729,-6.7229,-6.7275,-6.7281,-6.7193,-6.7255,-6.7252,-6.7245,-6.7251,-6.7203,-6.7252,-6.7238,-6.7314,-6.7355,-6.736,-6.7375,-6.7326,-6.7502,-6.752,-6.7535,-6.759,-6.7612,-6.7345,-6.7345,-6.7344,-6.7343,0,-6.7413,-6.7447,-6.7499,-6.7495,-6.7508,-6.7561,-6.751,-6.753,-6.7488,-6.7459,-6.7519,-6.7499,-6.7512,-6.7528,-6.7486,-6.76,-6.7573,-6.7515,-6.7427,-6.7569,-6.7619,-6.764,-6.7357,-6.7354,-6.7352,-6.735,0,0,-6.7649,-6.7615,-6.7635,-6.7633,-6.7614,-6.764,-6.7691,-6.7704,-6.7723,-6.7723,-6.7764,-6.7802,-6.7749,-6.7752,-6.7709,-6.7753,-6.7884,-6.7689,-6.7688,-6.7725,-6.8009,-6.8051,-6.8076,-6.7847,-6.7851,-6.7854,-6.8009,0,-6.7801,-6.7885,-6.7834,-6.7926,-6.7958,-6.7878,-6.7923,-6.7917,-6.7893,-6.7917,-6.789,-6.7918,-6.7846,-6.7847,-6.7888,-6.786,-6.794,-6.7848,-6.7884,-6.7886,-6.7887,-6.8102,-6.8146,-6.8294,-6.8029,-6.8032,-6.8034,0,-6.7988,-6.7997,-6.8093,-6.8071,-6.8082,-6.8123,-6.8132,-6.8157,-6.8149,-6.8129,-6.8135,-6.8083,-6.8132,-6.8049,-6.8116,-6.8055,-6.8068,-6.8057,-6.8061,-6.806,-6.7967,-6.8105,-6.834,-6.8361,-6.8065,-6.8062,-6.806,0,-6.8149,-6.8187,-6.8249,-6.825,-6.8226,-6.8257,-6.8248,-6.8236,-6.8249,-6.8258,-6.8265,-6.828,-6.8288,-6.8301,-6.8255,-6.8198,-6.8329,-6.8241,-6.8313,-6.8314,-6.8341,-6.834,-6.8579,-6.8354,-6.8353,-6.8353,-6.8352,0,-6.8323,-6.8384,-6.8321,-6.8359,-6.8427,-6.837,-6.8438,-6.8421,-6.8412,-6.8446,-6.8379,-6.8413,-6.8351,-6.8378,-6.8343,-6.8405,-6.8409,-6.8394,-6.8383,-6.8398,-6.84,-6.8403,-6.8391,-6.8359,-6.8357,-6.8356,-6.8355,0,-6.8512,-6.8473,-6.8536,-6.8509,-6.8504,-6.8555,-6.8532,-6.8567,-6.854,-6.8584,-6.8592,-6.855,-6.8579,-6.8535,-6.856,-6.8536,-6.8621,-6.8596,-6.8623,-6.8615,-6.8689,-6.8682,-6.8936,-6.8967,-6.8724,-6.8727,-6.8729,0,-6.8624,-6.867,-6.8649,-6.8668,-6.8664,-6.8694,-6.8707,-6.8654,-6.8671,-6.8668,-6.8704,-6.8728,-6.8744,-6.8795,-6.8767,-6.8786,-6.8759,-6.8848,-6.8761,-6.8776,-6.8759,-6.8756,-6.876,-6.8864,-6.8867,-6.8869,-6.8871,0,-6.8826,-6.8806,-6.8827,-6.8843,-6.8861,-6.8871,-6.8876,-6.8895,-6.884,-6.8862,-6.8892,-6.8905,-6.8931,-6.8956,-6.8969,-6.896,-6.8907,-6.89,-6.8917,-6.8931,-6.8945,-6.8937,-6.8669,-6.8893,-6.8891,-6.8889,-6.8888,-6.8887,-6.8979,-6.9016,-6.9009,-6.9036,-6.9035,-6.9042,-6.9074,-6.9053,-6.9077,-6.9094,-6.9063,-6.9101,-6.9096,-6.9107,-6.9105,-6.9135,-6.9096,-6.9121,-6.9127,-6.9134,-6.9145,-6.8943,-6.9137,-6.9136,-6.9136,-6.9135,-6.9135,0,-6.9176,-6.9169,-6.9195,-6.9205,-6.9227,-6.9178,-6.9182,-6.9203,-6.9238,-6.9238,-6.9256,-6.9292,-6.9317,-6.9293,-6.9313,-6.9341,-6.9318,-6.9348,-6.9344,-6.9343,-6.9179,-6.9161,-6.9367,-6.9367,-6.9367,-6.9367,-6.9367,-6.9367,-6.9281,-6.9343,-6.9322,-6.9384,-6.9375,-6.9413,-6.942,-6.9426,-6.9426,-6.9469,-6.949,-6.9475,-6.9465,-6.9485,-6.9506,-6.9499,-6.9509,-6.9548,-6.9532,-6.9377,-6.9355,-6.9333,-6.9315,-6.9551,-6.9551,-6.9693,-6.9694,-6.9695]},{"header":{"parameterUnit":"m.s-1","parameterCategory":1,"la1":30.2991,"la2":30.254,"lo1":-89.0895,"lo2":-89.0444,"dy":0.0017,"dx":0.0017,"nx":28,"ny":28,"refTime":"2024-12-13T03:00:00:Z","depth":0,"parameterNumber":3,"parameterNumberName":"V-component_of_WINDS"},"data":[0,0,0,0,0,0,0,0,0,0,0,0,0,0,0,0,0,0,0,0,0,0,0,0,0,0,0,0,0,0,0,0,0,0,0,0,0,0,0,0,0,0,0,0,0,0,0,0,0,0,0,0,0,0,0,0,0,0,0.8674,0.8674,0,0.8687,0.8687,0.8687,0.8733,0.8734,0.8735,0.8736,0.8745,0.8745,0.8744,0,0,0,0,0,0,0,0,0,0,0,0,0,0.8688,0.8687,0.8674,0.8674,0.8674,0.8687,0.8687,0.8687,0.8733,0.8734,0.8736,0.8737,0.8745,0.8745,0.8744,0,0,0,0,0,0,0,0,0,0,0,0,0,0.8689,0.8687,0.8674,0.8699,0.8701,0.8687,0.8687,0.8687,0.8733,0.8734,0.8736,0.8737,0.8746,0.8745,0.8744,0.8705,0,0,0.874,0.874,0,0,0,0,0,0,0,0,0.8689,0.8689,0.8695,0.8697,0.87,0.871,0.8695,0.8693,0.8732,0.8721,0.8736,0.8738,0.8732,0.8732,0.8731,0.8705,0.8706,0.874,0.8739,0.8739,0.8739,0,0,0,0,0,0,0,0.8689,0.8688,0.8679,0.8695,0.8698,0.8709,0.8711,0.8695,0.8717,0.8722,0.8725,0.8726,0.8734,0.8732,0.8731,0.8706,0.874,0.8739,0.8738,0.8738,0.8653,0.8651,0,0,0,0,0,0,0.8686,0.8688,0.8679,0.8679,0.8698,0.8707,0.871,0.8705,0.8717,0.8721,0.8725,0.8728,0.8733,0.8733,0.8732,0.869,0.8739,0.8738,0.8737,0.8654,0.8652,0.8651,0,0,0,0,0,0,0.8686,0.8684,0.8678,0.8685,0.8685,0.8705,0.87,0.8705,0.8703,0.872,0.8724,0.8719,0.8734,0.8733,0.8712,0.8691,0.8737,0.8736,0.8656,0.8654,0.8651,0.8604,0,0,0,0,0,0,0.8686,0.8684,0.867,0.8684,0.8684,0.8659,0.8699,0.8704,0.8701,0.8706,0.8716,0.8719,0.8735,0.8714,0.8711,0.869,0.8735,0.8658,0.8655,0.8652,0.8607,0.86,0.8594,0,0,0,0,0,0.8686,0.8654,0.8669,0.8667,0.8667,0.8657,0.8657,0.8678,0.8699,0.8685,0.8697,0.8718,0.8693,0.8711,0.8709,0.8687,0.866,0.8656,0.8652,0.861,0.8602,0.8594,0,0,0,0,0,0,0.8635,0.8656,0.8673,0.8645,0.8649,0.8665,0.8648,0.8668,0.8665,0.8669,0.8695,0.8696,0.8672,0.8677,0.8697,0.8652,0.868,0.8676,0.8649,0.8641,0.8634,0.8634,0.8735,0,0,0,0,0,0.862,0.8612,0.8631,0.8604,0.8606,0.8626,0.8623,0.8639,0.8644,0.8646,0.8655,0.8658,0.8652,0.8646,0.8641,0.8608,0.8612,0.8592,0.8586,0.858,0.8576,0.8562,0.8554,0.8639,0.8639,0.8639,0,0,0.859,0.8601,0.8593,0.8594,0.8599,0.859,0.8627,0.8615,0.8608,0.8643,0.8625,0.8632,0.8637,0.8611,0.86,0.8615,0.8554,0.8575,0.8571,0.857,0.8557,0.8549,0.8542,0.8636,0.8637,0.8637,0,0,0.853,0.8537,0.8517,0.8523,0.8531,0.8546,0.8541,0.8555,0.8562,0.8544,0.8571,0.8563,0.855,0.8554,0.8554,0.8499,0.8519,0.8496,0.8461,0.8446,0.844,0.8434,0.8416,0.8409,0.8492,0.8492,0.8492,0,0.8491,0.8479,0.8504,0.8491,0.8491,0.8525,0.8505,0.8509,0.8514,0.8513,0.853,0.8517,0.8523,0.8499,0.8486,0.8484,0.848,0.8495,0.8439,0.8433,0.8428,0.8412,0.8405,0.8489,0.8489,0.849,0.849,0,0.8431,0.8422,0.8405,0.8413,0.8411,0.8394,0.8417,0.8412,0.8429,0.8441,0.8424,0.8433,0.8431,0.8426,0.8441,0.8405,0.8415,0.8434,0.8464,0.8417,0.8402,0.8396,0.8485,0.8486,0.8487,0.8488,0,0,0.8338,0.8362,0.8355,0.8361,0.8374,0.8367,0.8352,0.8353,0.8349,0.8352,0.8341,0.8331,0.8351,0.8351,0.8367,0.8354,0.8313,0.8376,0.8377,0.8366,0.8276,0.8262,0.8254,0.8327,0.8326,0.8325,0.8276,0,0.8283,0.8261,0.8285,0.8258,0.8251,0.8284,0.8272,0.8279,0.8291,0.8286,0.8299,0.8292,0.8318,0.8319,0.8308,0.832,0.8296,0.8324,0.8317,0.8317,0.8316,0.8246,0.823,0.8184,0.827,0.8269,0.8269,0,0.8215,0.8219,0.8192,0.821,0.8208,0.8196,0.82,0.8195,0.8204,0.8214,0.8215,0.8236,0.8223,0.8252,0.8236,0.8255,0.8253,0.8259,0.8258,0.8259,0.829,0.8246,0.817,0.8163,0.8259,0.826,0.8261,0,0.8153,0.815,0.8134,0.8137,0.8157,0.8149,0.8156,0.8167,0.8167,0.8169,0.817,0.817,0.817,0.817,0.819,0.8209,0.8172,0.8202,0.818,0.818,0.8171,0.8171,0.8095,0.8168,0.8168,0.8168,0.8168,0,0.8089,0.8072,0.8107,0.8097,0.8079,0.8107,0.8088,0.8099,0.8109,0.8102,0.813,0.8122,0.815,0.8145,0.8161,0.8146,0.8146,0.8153,0.8158,0.8152,0.8151,0.8152,0.8156,0.8167,0.8167,0.8167,0.8168,0,0.8016,0.8038,0.8024,0.8045,0.805,0.8036,0.8054,0.8047,0.8061,0.8053,0.8052,0.8075,0.8072,0.8092,0.8092,0.8103,0.8081,0.809,0.8078,0.8082,0.806,0.8062,0.7982,0.7973,0.8051,0.805,0.8049,0,0.7975,0.7963,0.7984,0.7982,0.7989,0.7986,0.7987,0.8013,0.8013,0.8024,0.8015,0.8014,0.8016,0.8009,0.8025,0.8026,0.8036,0.8008,0.8036,0.8031,0.8038,0.8039,0.8039,0.8002,0.8001,0.8,0.8,0,0.79,0.7912,0.7913,0.7918,0.7919,0.7924,0.793,0.7927,0.7956,0.7954,0.7953,0.7954,0.7956,0.7955,0.796,0.7967,0.7988,0.7991,0.7986,0.798,0.7975,0.7979,0.8064,0.7993,0.7993,0.7994,0.7994,0.7994,0.7842,0.7835,0.7849,0.785,0.7858,0.7864,0.7859,0.7874,0.7874,0.7879,0.7894,0.789,0.7902,0.791,0.7916,0.7913,0.7926,0.7919,0.7918,0.7916,0.7913,0.7975,0.7914,0.7914,0.7914,0.7914,0.7914,0,0.7771,0.7782,0.7783,0.7793,0.7793,0.7815,0.7825,0.7823,0.782,0.783,0.7831,0.7831,0.7831,0.7848,0.7851,0.7845,0.7856,0.7845,0.7846,0.7848,0.7899,0.7904,0.7837,0.7837,0.7837,0.7837,0.7837,0.7837,0.7733,0.7722,0.7737,0.773,0.7742,0.774,0.7744,0.775,0.7758,0.7757,0.7758,0.777,0.7783,0.7787,0.7789,0.7794,0.7794,0.7781,0.7789,0.7837,0.7844,0.7851,0.7856,0.778,0.778,0.7739,0.7738,0.7738]}]]